Probability
3 3 1 0 0 0 0 0 0 0 0 0 0 0 0 0 0 0 0 0 0 1 2 4 6 5 2 1 1 1 0 0 0 0 0 0 1 2 2 2 2 2 3
4 3 2 1 0 0 0 0 0 0 0 0 0 0 0 0 0 0 0 0 0 1 2 3 4 4 1 0 0 0 0 0 0 0 0 0 0 1 1 1 2 3 3
5 4 3 1 0 0 0 0 0 0 0 0 0 0 0 0 0 0 0 0 0 0 1 1 2 2 1 0 0 0 0 0 0 0 0 0 0 0 0 0 1 3 4
4 4 3 2 0 0 0 0 0 0 0 0 0 0 0 0 0 0 0 0 0 0 0 0 0 0 0 0 0 0 0 0 0 0 0 0 0 0 0 0 1 3 4
4 4 3 1 0 0 0 0 0 0 0 0 0 0 0 0 0 0 0 0 0 0 0 0 0 0 0 0 0 0 0 0 0 0 0 0 0 0 0 0 0 1 2
3 3 2 1 0 0 0 0 0 0 0 0 0 0 0 0 0 0 0 0 0 0 0 0 0 0 0 0 1 1 0 0 0 0 0 1 0 0 0 0 0 0 1
3 3 2 1 0 0 0 0 0 0 0 0 0 0 0 0 0 0 0 0 0 0 0 0 0 0 0 0 0 1 1 0 0 0 0 0 0 0 0 0 0 0 0
3 3 1 0 0 0 0 0 0 0 0 0 0 0 0 0 0 0 0 0 0 0 0 0 0 0 0 0 0 0 0 0 0 0 0 0 0 0 0 0 1 1 0
3 2 1 1 1 0 0 0 0 0 0 0 0 0 0 0 0 0 0 0 0 0 0 0 0 0 0 0 0 0 0 0 0 0 0 0 0 0 0 1 2 2 1
1 1 1 2 2 1 0 0 0 0 0 0 0 0 0 0 0 0 0 0 0 0 0 0 0 0 0 0 0 0 0 0 0 0 0 0 0 0 0 1 2 2 2
0 0 1 2 3 2 1 0 0 0 0 0 0 0 0 0 0 0 0 0 0 0 0 0 0 0 0 0 0 0 0 0 0 0 0 0 0 0 0 0 1 2 3
0 0 1 2 3 3 2 1 0 0 0 0 0 0 0 0 0 0 0 0 0 0 0 0 0 0 0 0 0 0 0 0 0 0 0 0 0 0 0 0 1 2 3
0 0 0 1 1 2 2 1 0 0 0 0 0 0 0 0 0 0 0 0 0 0 0 0 0 0 0 0 0 0 0 0 0 0 0 0 0 0 0 0 1 2 2
0 0 0 1 1 1 1 0 0 0 0 0 0 0 0 0 0 0 0 0 0 0 0 0 0 0 0 0 0 0 0 0 0 0 0 0 0 0 0 0 0 1 1
0 0 0 0 0 0 0 0 0 0 0 0 0 0 0 0 0 0 0 0 0 0 0 0 0 0 0 0 0 0 0 0 0 0 0 0 0 0 0 0 0 0 0
0 0 0 0 0 0 0 0 0 0 0 0 0 0 0 0 0 0 0 0 0 0 0 0 0 0 0 0 0 0 0 0 0 0 0 0 0 0 0 0 0 0 0
0 0 0 0 0 0 0 0 0 0 0 0 0 0 0 0 0 0 0 0 0 0 0 0 0 0 0 0 0 0 0 0 0 0 0 0 0 0 0 0 0 0 0
0 0 0 0 0 0 0 0 0 0 0 0 0 0 0 0 0 0 0 0 0 0 0 0 0 0 0 0 0 0 0 0 0 0 0 0 0 0 0 0 0 0 0
0 0 0 0 0 0 0 0 0 0 0 0 0 0 0 0 0 0 0 0 0 0 0 0 0 0 0 0 0 0 0 0 0 0 0 0 0 0 0 0 0 0 0
0 0 0 0 0 0 0 0 0 0 0 0 0 0 0 0 0 0 0 0 0 0 0 0 0 0 0 0 0 0 0 0 0 0 0 0 0 0 0 0 0 0 0
0 0 0 0 0 0 0 0 0 0 0 0 0 0 0 0 0 0 0 0 0 0 0 0 0 0 0 0 0 0 0 0 0 0 0 0 0 0 0 0 0 0 0
0 0 0 0 0 0 0 0 0 0 0 0 0 0 0 0 0 0 0 0 0 0 0 0 0 0 0 0 0 0 0 0 0 0 0 0 0 0 0 0 0 0 0
0 0 0 0 0 0 0 0 0 0 0 0 0 0 0 0 0 0 0 0 0 0 0 0 0 0 0 0 0 0 0 0 0 0 0 0 0 0 0 0 0 0 0
0 0 0 0 0 0 0 0 0 0 0 0 0 0 0 0 0 0 0 0 0 0 0 0 0 0 0 0 0 0 0 0 0 0 0 0 0 0 0 0 0 0 0
0 0 0 0 0 0 0 0 0 0 0 0 0 0 0 0 0 0 0 0 0 0 0 0 0 0 0 0 0 0 0 0 0 0 0 0 0 0 0 0 0 0 0
0 0 0 0 0 0 0 0 0 0 0 0 0 0 0 0 0 0 0 0 0 0 0 0 0 0 0 0 0 0 0 0 0 0 0 0 0 0 0 0 0 0 0
Wind_Speed
2 2 2 2 2 2 2 2 2 2 2 2 2 2 2 1 0 1 0 2 3 1 0 1 1 1 1 1 1 2 3 2 1 2 2 2 2 2 3 3 4 4 4
3 2 2 2 2 2 2 2 2 2 1 1 2 2 2 1 1 1 1 0 2 2 1 1 1 1 1 1 2 2 2 3 2 2 2 3 3 3 3 4 4 5 5
3 3 2 2 2 2 3 2 3 2 2 2 2 2 2 2 2 2 1 1 1 1 2 2 2 2 2 2 2 3 3 3 4 3 3 3 4 4 4 5 5 5 5
4 3 3 3 3 2 2 3 3 2 2 2 2 2 2 2 2 2 2 2 1 1 1 2 3 3 3 3 3 4 4 4 4 5 5 5 4 5 5 5 6 6 6
4 4 3 3 3 3 3 3 3 2 2 2 2 2 2 2 2 2 2 2 1 2 1 1 2 3 3 3 4 4 5 5 6 6 6 6 6 6 6 6 6 7 6
4 4 3 3 4 3 3 3 3 2 2 2 1 1 2 2 2 2 2 2 2 2 2 1 1 1 3 4 4 5 5 6 6 7 7 7 6 6 6 6 7 7 7
5 4 3 4 4 4 4 4 3 3 2 1 1 1 2 2 3 2 3 3 2 2 2 2 1 2 2 3 5 5 6 6 6 7 7 6 6 6 6 7 7 7 7
5 5 5 4 4 4 4 5 4 3 2 2 2 1 2 3 3 3 3 2 3 2 2 2 2 2 2 2 2 5 6 7 7 7 7 8 7 7 7 7 8 8 8
6 6 6 5 5 5 5 5 5 5 4 4 3 3 2 3 1 3 4 3 3 3 3 3 3 3 3 3 3 4 6 7 7 8 8 8 7 8 8 8 8 9 9
6 6 6 6 6 5 5 5 6 5 5 4 3 3 3 2 2 2 3 3 4 4 4 3 3 4 4 3 3 4 5 6 7 8 8 8 8 8 9 9 10 10 10
6 6 6 6 6 5 6 6 6 6 5 5 4 3 3 3 3 3 4 3 3 4 4 4 4 3 4 4 4 4 5 6 7 7 8 9 8 9 9 10 10 11 11
4 6 6 6 6 6 6 6 6 7 6 6 5 5 4 4 4 4 5 4 4 3 4 4 4 4 4 4 4 5 6 7 7 8 8 8 8 9 10 10 10 11 11
4 6 6 6 6 6 6 6 6 6 7 7 6 5 5 5 3 4 5 4 4 3 3 4 4 4 4 4 4 5 6 7 8 8 8 8 9 9 10 10 11 11 11
5 5 6 6 6 6 6 6 6 6 6 7 7 7 5 5 4 4 4 4 4 4 4 5 3 4 3 3 4 5 5 7 8 8 8 8 9 9 10 11 11 11 11
4 5 6 6 6 6 6 6 5 6 6 7 7 7 6 5 5 5 4 5 5 5 5 4 3 3 3 3 3 4 5 5 7 8 8 9 9 10 11 12 11 11 12
4 4 5 6 6 6 6 6 6 6 6 6 5 6 7 5 5 5 5 5 5 5 5 3 3 3 3 4 5 5 5 6 8 8 9 9 10 11 11 11 11 12 13
3 4 4 5 5 6 6 6 6 6 7 7 6 7 7 6 5 5 5 5 5 5 7 5 3 3 4 5 4 5 5 5 5 7 9 10 10 11 11 11 11 12 13
3 3 3 4 5 5 5 6 6 7 7 7 7 7 7 5 7 5 5 6 5 6 6 7 5 4 5 5 5 5 5 5 5 7 9 10 11 11 11 11 12 12 13
2 2 2 3 3 4 4 5 6 6 6 7 7 7 7 6 7 5 6 6 5 5 5 5 5 4 4 4 5 5 5 5 5 6 8 10 11 11 11 12 12 12 12
2 2 2 2 3 2 3 3 4 5 5 5 5 6 6 7 7 7 6 6 5 5 5 5 5 4 4 3 4 4 5 4 4 4 6 7 8 10 11 12 12 11 12
2 2 2 2 2 2 2 3 3 4 5 5 5 5 6 6 7 6 5 5 5 5 5 5 5 4 4 3 4 3 5 4 5 4 4 5 5 5 6 9 11 12 13
2 1 2 2 3 2 3 3 3 4 4 5 5 5 5 5 6 8 8 8 7 7 6 6 5 6 6 5 4 4 4 4 5 2 3 5 4 6 6 6 8 11 12
2 2 2 2 3 3 3 4 5 4 4 4 4 4 3 3 4 4 6 8 8 9 9 7 7 8 7 6 5 5 5 6 6 3 4 6 4 6 6 6 10 11 12
2 2 2 2 2 3 3 4 4 4 4 4 4 4 4 4 3 4 4 5 6 6 7 7 7 7 6 5 5 6 6 6 6 3 3 6 5 6 6 6 9 11 13
2 2 2 2 3 3 3 3 3 3 3 4 4 4 4 5 4 5 5 5 5 5 5 6 7 6 6 6 4 3 3 4 5 4 3 4 4 5 6 6 6 10 12
2 2 2 2 3 3 3 3 4 2 3 3 4 4 4 5 5 6 5 5 6 5 3 3 4 4 4 3 4 4 4 4 4 4 2 3 3 3 5 4 4 4 6
Wind_Direction
184 183 182 184 184 184 184 179 169 159 164 162 163 175 180 174 181 185 78 34 1 331 236 255 274 270 282 332 345 5 358 335 327 335 325 320 317 315 317 311 312 314 307
187 188 185 185 186 189 190 186 178 177 188 185 178 191 204 208 218 229 246 64 9 342 328 313 335 324 303 307 311 316 324 333 331 329 332 327 322 321 327 325 319 313 307
193 193 188 187 187 184 186 186 184 189 190 194 192 200 211 222 229 243 260 273 264 329 346 340 344 345 323 312 306 301 305 307 317 310 310 313 308 305 309 312 313 311 312
198 194 190 187 182 185 189 189 189 191 196 206 207 210 217 220 231 239 242 254 268 276 323 9 350 344 332 325 318 310 301 300 300 298 291 294 299 300 295 298 307 309 310
203 198 190 183 181 183 190 193 194 200 205 212 220 229 237 235 236 235 232 240 247 260 263 17 358 349 334 320 316 314 302 297 296 298 293 289 290 295 295 295 296 298 303
202 200 189 184 183 185 187 192 192 198 212 206 220 257 257 247 240 239 238 234 233 239 244 262 273 313 322 316 314 311 304 302 301 299 296 287 290 295 301 301 296 297 299
200 199 195 189 191 195 194 191 191 188 195 186 201 245 245 232 231 228 233 236 236 240 252 264 275 286 285 294 301 306 308 311 310 308 308 299 293 297 303 305 306 307 302
205 202 199 196 196 197 197 197 197 196 191 197 213 227 238 218 212 225 231 240 244 243 248 258 268 274 285 279 305 302 304 308 309 308 311 312 298 298 302 305 308 304 303
209 205 204 199 199 202 204 204 204 203 205 204 220 232 234 239 242 210 227 232 236 241 246 247 256 264 272 275 279 287 300 301 302 301 304 304 300 296 295 299 301 301 302
211 207 205 204 204 208 211 210 212 215 212 210 212 239 268 285 242 239 216 224 233 239 242 245 251 254 261 264 276 293 296 295 297 298 298 298 293 295 295 295 295 296 296
211 210 206 207 209 211 214 215 210 212 216 221 213 210 225 242 249 246 254 241 239 239 240 243 246 249 253 258 267 282 285 285 289 291 291 290 287 290 293 295 294 294 293
212 214 210 211 214 215 215 216 215 215 218 224 223 216 214 217 217 229 248 261 262 251 241 239 240 241 245 250 258 276 277 278 280 283 285 282 282 286 287 290 293 296 296
215 215 211 214 215 218 218 216 218 220 220 222 224 227 228 232 233 233 243 255 263 267 246 234 231 237 240 248 255 266 267 272 276 280 280 280 280 281 284 288 291 292 291
221 218 212 214 216 217 217 214 219 220 222 224 226 228 230 232 225 226 234 240 256 254 244 244 226 228 235 247 267 262 264 265 273 275 276 278 280 280 280 283 287 288 289
226 216 210 211 215 214 213 212 219 221 221 225 227 227 229 230 227 230 233 234 241 252 252 238 231 220 233 249 259 263 270 275 274 272 272 275 277 278 279 280 280 284 286
224 215 216 214 215 213 210 211 218 222 221 223 224 227 227 226 226 226 227 231 239 250 258 247 246 255 248 254 254 260 265 269 262 267 271 274 275 276 278 277 278 281 284
227 221 219 215 217 217 214 213 218 221 223 223 222 226 230 226 224 224 225 227 230 234 251 263 264 262 249 256 259 260 265 262 259 262 269 271 274 276 276 276 277 280 281
229 223 222 221 219 221 218 216 218 221 224 225 224 226 231 226 228 226 224 227 229 230 241 256 260 256 257 261 264 265 266 263 264 264 264 267 271 273 274 274 278 281 280
228 222 221 223 226 224 224 222 221 225 230 231 229 228 232 227 230 228 227 230 231 233 238 248 260 262 264 266 270 268 268 265 263 266 264 265 267 271 273 272 274 279 282
225 224 231 237 238 235 237 236 231 228 233 240 241 237 234 230 231 230 229 232 231 233 235 242 254 261 263 266 264 269 274 268 270 269 265 266 269 269 267 267 271 275 278
236 233 238 248 251 246 245 239 237 238 236 238 239 239 239 237 236 233 232 230 226 229 231 236 247 256 256 256 256 266 272 283 276 263 270 266 266 264 263 263 265 269 272
245 241 239 243 249 250 257 245 245 247 246 243 245 245 243 237 239 236 237 237 233 231 233 236 244 249 254 255 257 259 269 278 275 250 271 276 268 267 266 261 265 268 270
253 247 249 251 256 264 263 255 247 249 251 250 252 255 254 250 242 245 242 240 242 242 238 238 246 251 255 253 252 257 256 260 266 284 281 273 265 268 270 267 270 269 271
254 261 265 268 277 294 282 263 254 245 255 257 256 254 254 255 249 246 249 248 246 245 244 242 250 258 262 259 247 252 259 269 279 270 253 271 276 274 279 274 272 271 273
264 267 277 275 276 288 295 288 274 255 255 260 259 256 254 256 257 243 243 249 256 262 261 253 257 267 273 269 258 253 253 261 271 266 239 264 283 289 283 273 272 275 276
271 284 290 286 285 289 304 295 276 255 260 264 265 261 256 259 264 251 245 245 253 262 262 260 259 263 264 257 250 248 245 255 267 268 218 244 275 294 289 268 277 286 285